Time,TemperatureF,DewpointF,PressureIn,WindDirection,WindDirectionDegrees,WindSpeedMPH,WindSpeedGustMPH,Humidity,HourlyPrecipIn,Conditions,Clouds,dailyrainin,SoftwareType,DateUTC
2013-02-23 00:12:00,37.1,31.0,30.07,North,352,4.0,6.0,79,0.00,,,0.00,weatherlink.com 1.10,2013-02-23 06:12:00,
2013-02-23 00:27:00,36.6,31.0,30.08,NNE,32,3.0,7.0,80,0.00,,,0.00,weatherlink.com 1.10,2013-02-23 06:27:00,
2013-02-23 00:42:00,36.2,31.0,30.07,NNW,344,1.0,4.0,81,0.00,,,0.00,weatherlink.com 1.10,2013-02-23 06:42:00,
2013-02-23 00:57:00,35.8,31.0,30.08,WNW,303,0.0,2.0,83,0.00,,,0.00,weatherlink.com 1.10,2013-02-23 06:57:00,
2013-02-23 01:12:00,35.4,31.0,30.08,NNE,32,1.0,2.0,84,0.00,,,0.00,weatherlink.com 1.10,2013-02-23 07:12:00,
2013-02-23 01:27:00,35.1,31.0,30.07,NNE,19,1.0,2.0,85,0.00,,,0.00,weatherlink.com 1.10,2013-02-23 07:27:00,
2013-02-23 01:42:00,34.7,31.0,30.07,North,360,3.0,4.0,85,0.00,,,0.00,weatherlink.com 1.10,2013-02-23 07:42:00,
2013-02-23 01:57:00,34.5,31.0,30.07,NE,40,0.0,3.0,85,0.00,,,0.00,weatherlink.com 1.10,2013-02-23 07:57:00,
2013-02-23 02:12:00,34.1,30.0,30.07,NNE,22,0.0,3.0,85,0.00,,,0.00,weatherlink.com 1.10,2013-02-23 08:12:00,
2013-02-23 02:27:00,33.6,30.0,30.06,NNE,26,1.0,4.0,86,0.00,,,0.00,weatherlink.com 1.10,2013-02-23 08:27:00,
2013-02-23 02:42:00,33.5,30.0,30.08,NNE,27,0.0,4.0,85,0.00,,,0.00,weatherlink.com 1.10,2013-02-23 08:42:00,
2013-02-23 02:58:00,33.2,29.0,30.07,NE,38,0.0,4.0,85,0.00,,,0.00,weatherlink.com 1.10,2013-02-23 08:58:00,
2013-02-23 03:13:00,32.8,29.0,30.06,NNE,12,3.0,3.0,86,0.00,,,0.00,weatherlink.com 1.10,2013-02-23 09:13:00,
2013-02-23 03:28:00,32.5,29.0,30.06,NE,44,2.0,3.0,86,0.00,,,0.00,weatherlink.com 1.10,2013-02-23 09:28:00,
2013-02-23 03:43:00,32.1,28.0,30.06,North,6,0.0,2.0,86,0.00,,,0.00,weatherlink.com 1.10,2013-02-23 09:43:00,
2013-02-23 03:58:00,32.0,29.0,30.06,North,1,0.0,3.0,87,0.00,,,0.00,weatherlink.com 1.10,2013-02-23 09:58:00,
2013-02-23 04:13:00,31.7,28.0,30.06,NE,42,0.0,3.0,87,0.00,,,0.00,weatherlink.com 1.10,2013-02-23 10:13:00,
2013-02-23 04:28:00,31.5,28.0,30.05,North,358,1.0,3.0,87,0.00,,,0.00,weatherlink.com 1.10,2013-02-23 10:28:00,
2013-02-23 04:43:00,31.2,28.0,30.05,NNE,18,0.0,1.0,88,0.00,,,0.00,weatherlink.com 1.10,2013-02-23 10:43:00,
2013-02-23 04:58:00,30.9,28.0,30.05,NNE,27,0.0,1.0,89,0.00,,,0.00,weatherlink.com 1.10,2013-02-23 10:58:00,
2013-02-23 05:13:00,30.7,28.0,30.05,NNE,25,0.0,2.0,89,0.00,,,0.00,weatherlink.com 1.10,2013-02-23 11:13:00,
2013-02-23 05:28:00,30.4,28.0,30.05,North,354,1.0,2.0,90,0.00,,,0.00,weatherlink.com 1.10,2013-02-23 11:28:00,
2013-02-23 05:43:00,30.3,28.0,30.05,North,6,1.0,1.0,90,0.00,,,0.00,weatherlink.com 1.10,2013-02-23 11:43:00,
2013-02-23 05:58:00,30.2,28.0,30.05,NNE,15,0.0,1.0,91,0.00,,,0.00,weatherlink.com 1.10,2013-02-23 11:58:00,
2013-02-23 06:13:00,30.0,28.0,30.05,NE,34,0.0,2.0,91,0.00,,,0.00,weatherlink.com 1.10,2013-02-23 12:13:00,
2013-02-23 06:28:00,29.9,28.0,30.05,NE,44,0.0,2.0,91,0.00,,,0.00,weatherlink.com 1.10,2013-02-23 12:28:00,
2013-02-23 06:43:00,29.8,28.0,30.05,North,358,0.0,1.0,91,0.00,,,0.00,weatherlink.com 1.10,2013-02-23 12:43:00,
2013-02-23 06:58:00,29.9,28.0,30.05,NNE,16,0.0,2.0,92,0.00,,,0.00,weatherlink.com 1.10,2013-02-23 12:58:00,
2013-02-23 07:13:00,30.6,28.0,30.05,NNW,344,4.0,4.0,91,0.00,,,0.00,weatherlink.com 1.10,2013-02-23 13:13:00,
2013-02-23 07:28:00,31.4,29.0,30.05,NNE,27,4.0,6.0,89,0.00,,,0.00,weatherlink.com 1.10,2013-02-23 13:28:00,
2013-02-23 07:43:00,32.2,29.0,30.06,NNE,12,1.0,7.0,86,0.00,,,0.00,weatherlink.com 1.10,2013-02-23 13:43:00,
2013-02-23 07:58:00,33.0,28.0,30.06,NNE,16,3.0,8.0,83,0.00,,,0.00,weatherlink.com 1.10,2013-02-23 13:58:00,
2013-02-23 08:13:00,33.4,28.0,30.06,NNE,27,3.0,8.0,81,0.00,,,0.00,weatherlink.com 1.10,2013-02-23 14:13:00,
2013-02-23 08:29:00,33.8,28.0,30.06,NNE,20,1.0,9.0,80,0.00,,,0.00,weatherlink.com 1.10,2013-02-23 14:29:00,
2013-02-23 08:44:00,34.1,28.0,30.04,NNW,333,4.0,7.0,79,0.00,,,0.00,weatherlink.com 1.10,2013-02-23 14:44:00,
2013-02-23 08:59:00,34.7,28.0,30.04,North,4,3.0,7.0,77,0.00,,,0.00,weatherlink.com 1.10,2013-02-23 14:59:00,
2013-02-23 09:14:00,34.8,28.0,30.05,North,1,4.0,7.0,77,0.00,,,0.00,weatherlink.com 1.10,2013-02-23 15:14:00,
2013-02-23 09:29:00,35.1,28.0,30.06,WNW,291,0.0,6.0,76,0.00,,,0.00,weatherlink.com 1.10,2013-02-23 15:29:00,
2013-02-23 09:44:00,35.8,29.0,30.07,West,262,0.0,6.0,75,0.00,,,0.00,weatherlink.com 1.10,2013-02-23 15:44:00,
2013-02-23 09:59:00,36.6,29.0,30.06,East,84,1.0,5.0,74,0.00,,,0.00,weatherlink.com 1.10,2013-02-23 15:59:00,
2013-02-23 10:13:00,37.1,29.0,30.06,NNE,25,4.0,5.0,73,0.00,,,0.00,weatherlink.com 1.10,2013-02-23 16:13:00,
2013-02-23 10:29:00,37.9,29.0,30.06,NE,49,2.0,7.0,71,0.00,,,0.00,weatherlink.com 1.10,2013-02-23 16:29:00,
2013-02-23 10:44:00,38.4,29.0,30.06,WNW,300,0.0,7.0,69,0.00,,,0.00,weatherlink.com 1.10,2013-02-23 16:44:00,
2013-02-23 10:59:00,40.0,30.0,30.06,North,359,3.0,5.0,68,0.00,,,0.00,weatherlink.com 1.10,2013-02-23 16:59:00,
2013-02-23 11:14:00,40.4,30.0,30.06,East,79,1.0,5.0,66,0.00,,,0.00,weatherlink.com 1.10,2013-02-23 17:14:00,
2013-02-23 11:29:00,41.6,30.0,30.05,West,264,2.0,4.0,64,0.00,,,0.00,weatherlink.com 1.10,2013-02-23 17:29:00,
2013-02-23 11:44:00,42.2,29.0,30.05,SW,228,2.0,6.0,60,0.00,,,0.00,weatherlink.com 1.10,2013-02-23 17:44:00,
2013-02-23 11:59:00,42.6,30.0,30.04,NNE,20,2.0,6.0,62,0.00,,,0.00,weatherlink.com 1.10,2013-02-23 17:59:00,
2013-02-23 12:14:00,43.7,30.0,30.03,NNE,23,1.0,6.0,58,0.00,,,0.00,weatherlink.com 1.10,2013-02-23 18:14:00,
2013-02-23 12:29:00,44.6,30.0,30.02,North,8,1.0,4.0,57,0.00,,,0.00,weatherlink.com 1.10,2013-02-23 18:29:00,
2013-02-23 12:44:00,45.9,31.0,30.02,North,11,5.0,6.0,56,0.00,,,0.00,weatherlink.com 1.10,2013-02-23 18:44:00,
2013-02-23 12:59:00,46.3,29.0,30.00,NNE,20,3.0,5.0,52,0.00,,,0.00,weatherlink.com 1.10,2013-02-23 18:59:00,
2013-02-23 13:15:00,46.7,30.0,30.00,NNE,27,3.0,6.0,53,0.00,,,0.00,weatherlink.com 1.10,2013-02-23 19:15:00,
2013-02-23 13:30:00,46.9,29.0,29.99,WNW,283,0.0,6.0,51,0.00,,,0.00,weatherlink.com 1.10,2013-02-23 19:30:00,
2013-02-23 13:45:00,47.5,30.0,29.99,NW,326,0.0,4.0,51,0.00,,,0.00,weatherlink.com 1.10,2013-02-23 19:45:00,
2013-02-23 14:00:00,48.1,31.0,29.99,NNE,24,3.0,7.0,51,0.00,,,0.00,weatherlink.com 1.10,2013-02-23 20:00:00,
2013-02-23 14:15:00,48.3,30.0,29.98,NE,49,1.0,7.0,50,0.00,,,0.00,weatherlink.com 1.10,2013-02-23 20:15:00,
2013-02-23 14:30:00,49.1,31.0,29.99,SSW,203,0.0,4.0,50,0.00,,,0.00,weatherlink.com 1.10,2013-02-23 20:30:00,
2013-02-23 14:45:00,50.0,31.0,29.98,South,179,1.0,6.0,49,0.00,,,0.00,weatherlink.com 1.10,2013-02-23 20:45:00,
2013-02-23 15:00:00,49.9,30.0,29.97,WNW,300,1.0,6.0,47,0.00,,,0.00,weatherlink.com 1.10,2013-02-23 21:00:00,
2013-02-23 15:15:00,50.4,30.0,29.98,NNE,26,0.0,4.0,45,0.00,,,0.00,weatherlink.com 1.10,2013-02-23 21:15:00,
2013-02-23 15:30:00,50.8,30.0,29.98,NNE,20,7.0,7.0,45,0.00,,,0.00,weatherlink.com 1.10,2013-02-23 21:30:00,
2013-02-23 15:45:00,50.7,31.0,29.97,North,352,3.0,7.0,47,0.00,,,0.00,weatherlink.com 1.10,2013-02-23 21:45:00,
2013-02-23 16:00:00,50.9,32.0,29.97,SW,229,1.0,9.0,49,0.00,,,0.00,weatherlink.com 1.10,2013-02-23 22:00:00,
2013-02-23 16:15:00,50.7,31.0,29.97,West,275,1.0,10.0,48,0.00,,,0.00,weatherlink.com 1.10,2013-02-23 22:15:00,
2013-02-23 16:30:00,50.3,31.0,29.97,North,6,4.0,8.0,47,0.00,,,0.00,weatherlink.com 1.10,2013-02-23 22:30:00,
2013-02-23 16:45:00,49.6,31.0,29.98,NNE,13,2.0,6.0,49,0.00,,,0.00,weatherlink.com 1.10,2013-02-23 22:45:00,
2013-02-23 17:00:00,48.8,32.0,29.98,WSW,253,4.0,6.0,52,0.00,,,0.00,weatherlink.com 1.10,2013-02-23 23:00:00,
2013-02-23 17:15:00,48.2,32.0,29.98,NNE,22,5.0,7.0,53,0.00,,,0.00,weatherlink.com 1.10,2013-02-23 23:15:00,
2013-02-23 17:30:00,47.2,31.0,29.98,NNE,18,2.0,6.0,54,0.00,,,0.00,weatherlink.com 1.10,2013-02-23 23:30:00,
2013-02-23 17:45:00,46.1,31.0,29.99,SW,218,1.0,5.0,56,0.00,,,0.00,weatherlink.com 1.10,2013-02-23 23:45:00,
2013-02-23 18:00:00,45.2,31.0,30.00,NE,54,2.0,5.0,59,0.00,,,0.00,weatherlink.com 1.10,2013-02-24 00:00:00,
2013-02-23 18:15:00,44.4,32.0,30.00,WNW,300,1.0,5.0,61,0.00,,,0.00,weatherlink.com 1.10,2013-02-24 00:15:00,
2013-02-23 18:30:00,43.8,31.0,30.00,North,349,3.0,6.0,62,0.00,,,0.00,weatherlink.com 1.10,2013-02-24 00:30:00,
2013-02-23 18:45:00,43.3,32.0,30.01,SW,219,0.0,5.0,65,0.00,,,0.00,weatherlink.com 1.10,2013-02-24 00:45:00,
2013-02-23 19:00:00,42.8,32.0,30.00,West,266,0.0,3.0,65,0.00,,,0.00,weatherlink.com 1.10,2013-02-24 01:00:00,
2013-02-23 19:15:00,42.2,32.0,30.01,NNE,20,0.0,3.0,67,0.00,,,0.00,weatherlink.com 1.10,2013-02-24 01:15:00,
2013-02-23 19:30:00,41.7,32.0,30.02,North,4,2.0,3.0,68,0.00,,,0.00,weatherlink.com 1.10,2013-02-24 01:30:00,
2013-02-23 19:45:00,41.3,32.0,30.02,North,356,0.0,4.0,69,0.00,,,0.00,weatherlink.com 1.10,2013-02-24 01:45:00,
2013-02-23 20:00:00,40.6,32.0,30.01,NNE,32,0.0,2.0,71,0.00,,,0.00,weatherlink.com 1.10,2013-02-24 02:00:00,
2013-02-23 20:15:00,39.2,31.0,30.02,NNE,32,0.0,0.0,73,0.00,,,0.00,weatherlink.com 1.10,2013-02-24 02:15:00,
2013-02-23 20:30:00,38.1,32.0,30.02,NNE,32,0.0,1.0,78,0.00,,,0.00,weatherlink.com 1.10,2013-02-24 02:30:00,
2013-02-23 20:45:00,37.3,31.0,30.03,NNE,32,0.0,1.0,79,0.00,,,0.00,weatherlink.com 1.10,2013-02-24 02:45:00,
2013-02-23 21:00:00,37.3,31.0,30.03,NNE,33,0.0,1.0,79,0.00,,,0.00,weatherlink.com 1.10,2013-02-24 03:00:00,
2013-02-23 21:15:00,36.3,31.0,30.03,NNE,32,0.0,0.0,81,0.00,,,0.00,weatherlink.com 1.10,2013-02-24 03:15:00,
2013-02-23 21:30:00,35.4,31.0,30.03,NNE,32,0.0,0.0,84,0.00,,,0.00,weatherlink.com 1.10,2013-02-24 03:30:00,
2013-02-23 21:45:00,34.7,31.0,30.04,NNE,32,0.0,0.0,86,0.00,,,0.00,weatherlink.com 1.10,2013-02-24 03:45:00,
2013-02-23 22:00:00,34.4,31.0,30.04,NNE,33,0.0,0.0,87,0.00,,,0.00,weatherlink.com 1.10,2013-02-24 04:00:00,
2013-02-23 22:15:00,34.0,31.0,30.04,NNE,32,0.0,0.0,87,0.00,,,0.00,weatherlink.com 1.10,2013-02-24 04:15:00,
2013-02-23 22:30:00,33.2,30.0,30.05,NNE,32,0.0,0.0,89,0.00,,,0.00,weatherlink.com 1.10,2013-02-24 04:30:00,
2013-02-23 22:45:00,33.1,31.0,30.04,NNE,32,0.0,0.0,90,0.00,,,0.00,weatherlink.com 1.10,2013-02-24 04:45:00,
2013-02-23 23:00:00,32.9,30.0,30.04,NNE,33,0.0,0.0,90,0.00,,,0.00,weatherlink.com 1.10,2013-02-24 05:00:00,
2013-02-23 23:15:00,32.6,30.0,30.04,NNE,32,0.0,0.0,90,0.00,,,0.00,weatherlink.com 1.10,2013-02-24 05:15:00,
2013-02-23 23:30:00,32.0,30.0,30.03,NNE,32,0.0,0.0,91,0.00,,,0.00,weatherlink.com 1.10,2013-02-24 05:30:00,
2013-02-23 23:45:00,32.2,30.0,30.03,NNE,32,0.0,0.0,91,0.00,,,0.00,weatherlink.com 1.10,2013-02-24 05:45:00,